Карточка аэропорта URRP

Внимание!
Информация на этой странице в стадии наполнения.
Если вы не увидели какой-то информации, или заметили неточность - пожалуйста сообщите нам!
Спасибо!
Команда RU-STAFF
Название аэропортаПлатов
Название аэропорта (англ.)Platov
Превышение282 ft. (86 m.)
Координаты47°29.634', 39°55.482'
Высота перехода3500 ft
Эшелон переходаFL50 (QNH >= 996); FL60 (QNH < 996)
Коды ответчика1001-1017
Зона ОрВДРостов-на-Дону РПИ (URRV)
Данные METARURRP 172230Z 32003MPS CAVOK 23/16 Q1008 R23/CLRD70 NOSIG RMK QFE748/0998
Проноз погоды (TAF)URRP 171957Z 1721/1821 22003G12MPS 6000 SCT030CB TX33/1812Z TN18/1802Z TEMPO 1800/1806 27003G08MPS PROB40 TEMPO 1800/1806 0300 FG SCT002 SCT020CB TEMPO 1809/1821 25006G12MPS -SHRA SCT016 BKN030CB
NOTAMshow/hide NOTAM
AWOS   TABLE

Информация о ВПП

ВПП Длина ВПП (м.) Покрытие Курс ВПП Частота ILS
053900Цементобетон46111.5
233900Цементобетон226110.9

Диспетчерские позиции

Позывной Наименование органа УВД Частота
URRP_GNDПлатов - руление119.0
URRP_TWRПлатов-Вышка119.7
URRP_R_APPПлатов - Круг121.2
URRP_DELПлатов-деливери127.1
URRP_APPПлатов-подход128.2



Спутниковое изображение